QPF
0.00 0.00 0.00 0.00 0.00 0.00 0.00 0.00 0.01 0.01 0.01 0.01 0.01 0.01 0.01 0.01 0.01 0.00 0.00 0.00 0.00 0.00 0.00 0.00 0.00 0.00 0.00 0.00 0.00 0.00 0.00 0.00 0.00 0.00 0.00 0.00 0.00 0.00 0.00 0.00 0.01 0.06 0.04
0.01 0.00 0.00 0.00 0.00 0.01 0.00 0.00 0.01 0.01 0.01 0.01 0.01 0.01 0.01 0.01 0.01 0.01 0.00 0.00 0.00 0.00 0.00 0.00 0.00 0.00 0.00 0.00 0.00 0.00 0.00 0.00 0.00 0.00 0.00 0.00 0.00 0.00 0.00 0.00 0.02 0.09 0.05
0.02 0.01 0.00 0.00 0.01 0.01 0.00 0.00 0.01 0.01 0.01 0.01 0.00 0.00 0.00 0.00 0.00 0.00 0.00 0.00 0.00 0.00 0.00 0.00 0.00 0.00 0.00 0.00 0.00 0.00 0.00 0.00 0.00 0.00 0.01 0.04 0.03 0.02 0.02 0.01 0.01 0.02 0.03
0.03 0.03 0.02 0.01 0.01 0.01 0.01 0.01 0.01 0.01 0.01 0.00 0.00 0.00 0.01 0.00 0.00 0.00 0.01 0.00 0.01 0.00 0.00 0.00 0.00 0.00 0.00 0.01 0.01 0.01 0.01 0.01 0.01 0.01 0.03 0.06 0.07 0.11 0.05 0.02 0.02 0.01 0.02
0.03 0.02 0.02 0.01 0.02 0.02 0.02 0.03 0.03 0.02 0.01 0.00 0.00 0.00 0.01 0.00 0.00 0.00 0.00 0.00 0.00 0.00 0.00 0.01 0.01 0.01 0.01 0.01 0.01 0.00 0.00 0.01 0.01 0.01 0.03 0.04 0.10 0.12 0.05 0.03 0.02 0.02 0.02
0.03 0.02 0.01 0.01 0.01 0.02 0.03 0.04 0.04 0.03 0.02 0.01 0.01 0.01 0.00 0.00 0.00 0.00 0.00 0.00 0.00 0.00 0.00 0.00 0.00 0.00 0.00 0.00 0.00 0.00 0.00 0.00 0.01 0.01 0.03 0.03 0.06 0.09 0.05 0.03 0.03 0.03 0.03
0.03 0.02 0.01 0.01 0.01 0.02 0.03 0.03 0.03 0.03 0.02 0.02 0.01 0.01 0.01 0.01 0.01 0.00 0.01 0.01 0.01 0.01 0.01 0.01 0.01 0.01 0.00 0.00 0.00 0.00 0.00 0.01 0.01 0.03 0.06 0.05 0.06 0.07 0.05 0.05 0.05 0.06 0.05
0.02 0.01 0.01 0.01 0.02 0.02 0.02 0.02 0.03 0.02 0.02 0.01 0.01 0.01 0.01 0.01 0.01 0.01 0.00 0.00 0.00 0.01 0.01 0.01 0.01 0.01 0.00 0.00 0.00 0.00 0.00 0.00 0.01 0.02 0.04 0.05 0.05 0.05 0.05 0.05 0.07 0.07 0.08
0.03 0.02 0.03 0.03 0.04 0.04 0.04 0.04 0.03 0.02 0.02 0.01 0.01 0.01 0.01 0.01 0.00 0.00 0.00 0.00 0.00 0.00 0.00 0.01 0.00 0.00 0.00 0.00 0.00 0.00 0.00 0.00 0.01 0.01 0.02 0.04 0.05 0.05 0.05 0.05 0.06 0.07 0.08
0.03 0.03 0.04 0.05 0.05 0.04 0.03 0.02 0.02 0.02 0.01 0.01 0.00 0.00 0.00 0.01 0.01 0.02 0.01 0.00 0.00 0.00 0.01 0.01 0.00 0.00 0.00 0.00 0.00 0.00 0.00 0.00 0.00 0.01 0.03 0.03 0.03 0.04 0.04 0.05 0.07 0.08 0.08
0.03 0.03 0.04 0.04 0.05 0.04 0.02 0.01 0.01 0.01 0.00 0.01 0.01 0.01 0.01 0.04 0.07 0.07 0.03 0.01 0.00 0.00 0.01 0.01 0.00 0.00 0.00 0.00 0.01 0.01 0.01 0.00 0.00 0.01 0.03 0.03 0.04 0.04 0.04 0.05 0.06 0.06 0.07
0.03 0.02 0.02 0.03 0.04 0.03 0.02 0.03 0.03 0.02 0.03 0.03 0.04 0.05 0.06 0.08 0.08 0.04 0.04 0.02 0.02 0.01 0.01 0.02 0.02 0.02 0.01 0.02 0.05 0.05 0.02 0.00 0.01 0.03 0.04 0.05 0.03 0.02 0.03 0.04 0.05 0.04 0.05
0.03 0.02 0.02 0.03 0.03 0.04 0.04 0.06 0.04 0.05 0.05 0.05 0.06 0.07 0.07 0.07 0.06 0.05 0.07 0.07 0.05 0.05 0.07 0.07 0.05 0.03 0.04 0.06 0.06 0.05 0.03 0.02 0.02 0.03 0.03 0.03 0.02 0.02 0.02 0.03 0.03 0.04 0.05
0.02 0.02 0.01 0.02 0.03 0.04 0.03 0.04 0.05 0.04 0.05 0.05 0.05 0.04 0.06 0.06 0.06 0.07 0.09 0.09 0.08 0.09 0.11 0.10 0.08 0.06 0.06 0.05 0.03 0.03 0.03 0.03 0.03 0.03 0.04 0.03 0.02 0.02 0.02 0.02 0.02 0.03 0.05
0.02 0.03 0.03 0.03 0.05 0.04 0.03 0.03 0.04 0.04 0.04 0.05 0.05 0.04 0.05 0.06 0.06 0.07 0.07 0.07 0.08 0.10 0.12 0.09 0.07 0.06 0.06 0.05 0.03 0.02 0.02 0.02 0.03 0.04 0.04 0.03 0.02 0.02 0.02 0.02 0.03 0.04 0.04
0.03 0.03 0.03 0.03 0.03 0.03 0.03 0.03 0.04 0.03 0.04 0.04 0.05 0.05 0.05 0.06 0.07 0.07 0.08 0.08 0.08 0.09 0.10 0.09 0.07 0.08 0.07 0.05 0.03 0.02 0.01 0.02 0.02 0.02 0.02 0.02 0.02 0.02 0.02 0.02 0.02 0.04 0.05
0.04 0.04 0.05 0.04 0.03 0.03 0.03 0.03 0.04 0.04 0.04 0.05 0.05 0.05 0.04 0.06 0.08 0.09 0.09 0.07 0.08 0.09 0.09 0.09 0.08 0.07 0.06 0.05 0.03 0.02 0.01 0.01 0.01 0.01 0.02 0.02 0.02 0.03 0.03 0.02 0.02 0.03 0.03
0.04 0.05 0.05 0.03 0.03 0.02 0.03 0.05 0.05 0.05 0.04 0.04 0.04 0.04 0.04 0.06 0.07 0.09 0.09 0.09 0.11 0.11 0.09 0.08 0.07 0.06 0.06 0.04 0.04 0.02 0.01 0.01 0.01 0.02 0.02 0.02 0.02 0.02 0.04 0.02 0.02 0.01 0.01
0.04 0.04 0.03 0.03 0.03 0.03 0.05 0.06 0.05 0.05 0.05 0.03 0.04 0.03 0.04 0.05 0.07 0.08 0.08 0.09 0.08 0.08 0.08 0.06 0.07 0.05 0.05 0.05 0.03 0.02 0.01 0.01 0.01 0.01 0.01 0.01 0.02 0.02 0.03 0.03 0.02 0.01 0.01
0.11 0.07 0.05 0.05 0.05 0.06 0.07 0.07 0.05 0.05 0.05 0.04 0.05 0.06 0.06 0.06 0.06 0.07 0.08 0.09 0.08 0.08 0.07 0.06 0.05 0.05 0.05 0.04 0.02 0.02 0.02 0.01 0.01 0.01 0.01 0.03 0.03 0.02 0.02 0.02 0.03 0.03 0.02
0.12 0.12 0.08 0.06 0.06 0.07 0.07 0.06 0.06 0.07 0.08 0.07 0.06 0.05 0.05 0.05 0.08 0.10 0.10 0.09 0.07 0.07 0.06 0.05 0.04 0.04 0.04 0.05 0.05 0.04 0.03 0.01 0.02 0.02 0.02 0.03 0.04 0.03 0.02 0.03 0.04 0.04 0.04
0.03 0.07 0.07 0.05 0.05 0.07 0.08 0.09 0.09 0.10 0.10 0.07 0.05 0.06 0.06 0.07 0.08 0.07 0.07 0.06 0.06 0.05 0.05 0.04 0.04 0.04 0.04 0.05 0.06 0.06 0.04 0.03 0.03 0.02 0.03 0.03 0.03 0.03 0.02 0.03 0.04 0.05 0.06
0.02 0.02 0.03 0.04 0.05 0.08 0.10 0.09 0.10 0.10 0.08 0.08 0.08 0.08 0.07 0.06 0.06 0.05 0.04 0.04 0.03 0.03 0.04 0.04 0.04 0.04 0.04 0.05 0.05 0.05 0.05 0.04 0.04 0.03 0.03 0.03 0.03 0.03 0.03 0.03 0.03 0.05 0.06
0.03 0.01 0.02 0.02 0.04 0.07 0.08 0.08 0.08 0.07 0.08 0.10 0.09 0.09 0.06 0.06 0.05 0.04 0.03 0.02 0.03 0.03 0.04 0.04 0.05 0.05 0.05 0.05 0.05 0.06 0.07 0.06 0.07 0.05 0.04 0.04 0.04 0.03 0.03 0.02 0.03 0.04 0.05
0.05 0.02 0.02 0.03 0.04 0.06 0.08 0.08 0.09 0.08 0.10 0.11 0.10 0.09 0.07 0.08 0.06 0.04 0.03 0.03 0.04 0.04 0.04 0.04 0.04 0.05 0.06 0.07 0.07 0.08 0.09 0.08 0.08 0.06 0.04 0.04 0.05 0.04 0.03 0.03 0.03 0.04 0.05
0.04 0.02 0.03 0.04 0.05 0.06 0.06 0.07 0.08 0.08 0.10 0.11 0.09 0.09 0.10 0.10 0.08 0.06 0.06 0.06 0.04 0.03 0.03 0.04 0.04 0.03 0.04 0.05 0.05 0.06 0.06 0.06 0.05 0.05 0.05 0.05 0.04 0.03 0.03 0.03 0.03 0.04 0.05
MSLP
1004.30 1004.77 1005.53 1006.44 1007.36 1008.14 1008.70 1009.03 1009.19 1009.28 1009.41 1009.66 1010.05 1010.57 1011.15 1011.72 1012.19 1012.53 1012.74 1012.85 1012.94 1013.05 1013.22 1013.47 1013.76 1014.05 1014.29 1014.45 1014.51 1014.50 1014.44 1014.38 1014.36 1014.40 1014.51 1014.67 1014.86 1015.06 1015.25 1015.44 1015.63 1015.83 1016.06
1004.58 1005.10 1005.88 1006.80 1007.71 1008.46 1008.99 1009.29 1009.42 1009.48 1009.60 1009.86 1010.29 1010.86 1011.50 1012.11 1012.62 1012.97 1013.16 1013.24 1013.28 1013.33 1013.45 1013.65 1013.91 1014.18 1014.42 1014.56 1014.62 1014.58 1014.50 1014.43 1014.39 1014.43 1014.54 1014.72 1014.93 1015.15 1015.37 1015.57 1015.77 1015.97 1016.18
1004.76 1005.30 1006.09 1007.02 1007.93 1008.69 1009.23 1009.54 1009.68 1009.76 1009.89 1010.16 1010.60 1011.19 1011.84 1012.45 1012.95 1013.28 1013.44 1013.48 1013.48 1013.50 1013.59 1013.78 1014.03 1014.30 1014.52 1014.67 1014.70 1014.66 1014.56 1014.46 1014.40 1014.43 1014.54 1014.72 1014.95 1015.19 1015.42 1015.64 1015.85 1016.06 1016.26
1004.82 1005.34 1006.12 1007.07 1008.01 1008.82 1009.41 1009.78 1009.97 1010.09 1010.25 1010.53 1010.97 1011.53 1012.14 1012.72 1013.17 1013.46 1013.59 1013.60 1013.57 1013.58 1013.68 1013.86 1014.12 1014.40 1014.63 1014.77 1014.80 1014.74 1014.61 1014.48 1014.40 1014.41 1014.51 1014.68 1014.91 1015.16 1015.41 1015.64 1015.85 1016.06 1016.28
1004.74 1005.24 1006.02 1006.98 1007.97 1008.84 1009.52 1009.98 1010.26 1010.44 1010.63 1010.92 1011.33 1011.84 1012.40 1012.90 1013.29 1013.53 1013.62 1013.62 1013.59 1013.61 1013.72 1013.94 1014.22 1014.52 1014.76 1014.90 1014.91 1014.82 1014.67 1014.50 1014.39 1014.36 1014.44 1014.60 1014.82 1015.07 1015.32 1015.56 1015.79 1016.01 1016.24
1004.57 1005.05 1005.83 1006.81 1007.85 1008.81 1009.58 1010.14 1010.50 1010.75 1010.98 1011.26 1011.64 1012.10 1012.57 1013.00 1013.33 1013.52 1013.58 1013.58 1013.57 1013.62 1013.76 1014.01 1014.32 1014.64 1014.89 1015.03 1015.03 1014.91 1014.72 1014.52 1014.36 1014.30 1014.34 1014.48 1014.68 1014.92 1015.18 1015.42 1015.66 1015.90 1016.14
1004.41 1004.87 1005.64 1006.64 1007.73 1008.75 1009.60 1010.24 1010.68 1010.99 1011.25 1011.53 1011.87 1012.26 1012.67 1013.03 1013.31 1013.46 1013.52 1013.52 1013.54 1013.63 1013.82 1014.10 1014.44 1014.77 1015.02 1015.14 1015.12 1014.98 1014.76 1014.52 1014.32 1014.22 1014.23 1014.34 1014.52 1014.75 1014.99 1015.24 1015.49 1015.74 1016.00
1004.32 1004.77 1005.54 1006.55 1007.65 1008.71 1009.60 1010.30 1010.78 1011.13 1011.40 1011.67 1011.98 1012.32 1012.68 1012.99 1013.23 1013.38 1013.45 1013.48 1013.54 1013.67 1013.89 1014.19 1014.54 1014.86 1015.10 1015.21 1015.16 1015.00 1014.74 1014.48 1014.25 1014.12 1014.09 1014.17 1014.34 1014.55 1014.79 1015.04 1015.30 1015.56 1015.84
1004.36 1004.81 1005.57 1006.56 1007.65 1008.69 1009.58 1010.28 1010.78 1011.13 1011.40 1011.66 1011.94 1012.26 1012.59 1012.89 1013.13 1013.29 1013.39 1013.46 1013.56 1013.72 1013.96 1014.28 1014.61 1014.92 1015.12 1015.20 1015.13 1014.94 1014.66 1014.37 1014.13 1013.98 1013.94 1014.00 1014.15 1014.36 1014.59 1014.84 1015.10 1015.36 1015.65
1004.54 1005.00 1005.74 1006.69 1007.72 1008.70 1009.54 1010.20 1010.67 1011.00 1011.26 1011.51 1011.78 1012.09 1012.42 1012.73 1012.99 1013.19 1013.34 1013.46 1013.60 1013.79 1014.04 1014.33 1014.64 1014.90 1015.07 1015.11 1015.00 1014.79 1014.50 1014.20 1013.95 1013.80 1013.75 1013.81 1013.96 1014.16 1014.39 1014.64 1014.89 1015.16 1015.43
1004.85 1005.31 1006.01 1006.89 1007.82 1008.70 1009.46 1010.04 1010.46 1010.75 1010.99 1011.23 1011.50 1011.82 1012.17 1012.52 1012.82 1013.08 1013.29 1013.47 1013.65 1013.86 1014.10 1014.37 1014.63 1014.84 1014.95 1014.93 1014.80 1014.56 1014.26 1013.96 1013.72 1013.57 1013.54 1013.60 1013.75 1013.96 1014.19 1014.43 1014.68 1014.92 1015.18
1005.20 1005.66 1006.31 1007.10 1007.92 1008.68 1009.31 1009.80 1010.15 1010.40 1010.62 1010.86 1011.15 1011.49 1011.88 1012.27 1012.64 1012.96 1013.24 1013.48 1013.70 1013.93 1014.16 1014.39 1014.60 1014.74 1014.78 1014.70 1014.52 1014.26 1013.96 1013.67 1013.44 1013.31 1013.28 1013.36 1013.52 1013.73 1013.97 1014.20 1014.43 1014.66 1014.88
1005.54 1005.99 1006.58 1007.26 1007.96 1008.59 1009.11 1009.51 1009.79 1010.01 1010.22 1010.46 1010.77 1011.14 1011.57 1012.01 1012.44 1012.84 1013.19 1013.49 1013.76 1014.00 1014.22 1014.41 1014.55 1014.62 1014.59 1014.46 1014.23 1013.94 1013.63 1013.34 1013.12 1013.01 1013.00 1013.10 1013.27 1013.48 1013.72 1013.95 1014.16 1014.35 1014.53
1005.80 1006.22 1006.75 1007.33 1007.91 1008.44 1008.86 1009.19 1009.44 1009.64 1009.85 1010.10 1010.43 1010.83 1011.29 1011.78 1012.27 1012.73 1013.14 1013.50 1013.81 1014.07 1014.28 1014.44 1014.52 1014.52 1014.41 1014.22 1013.94 1013.62 1013.30 1013.01 1012.80 1012.70 1012.71 1012.82 1013.00 1013.21 1013.44 1013.66 1013.85 1014.02 1014.16
1005.95 1006.34 1006.81 1007.31 1007.80 1008.24 1008.61 1008.91 1009.14 1009.36 1009.58 1009.86 1010.20 1010.62 1011.10 1011.62 1012.14 1012.65 1013.11 1013.52 1013.86 1014.14 1014.34 1014.47 1014.50 1014.43 1014.26 1014.01 1013.69 1013.34 1013.00 1012.71 1012.51 1012.41 1012.42 1012.53 1012.71 1012.92 1013.14 1013.35 1013.52 1013.66 1013.76
1005.97 1006.34 1006.76 1007.20 1007.64 1008.04 1008.40 1008.72 1008.98 1009.24 1009.50 1009.79 1010.15 1010.56 1011.04 1011.55 1012.08 1012.60 1013.09 1013.53 1013.90 1014.19 1014.39 1014.50 1014.49 1014.37 1014.15 1013.85 1013.49 1013.12 1012.76 1012.47 1012.26 1012.17 1012.18 1012.28 1012.44 1012.65 1012.85 1013.04 1013.20 1013.31 1013.39
1005.91 1006.26 1006.64 1007.05 1007.48 1007.90 1008.29 1008.65 1008.98 1009.29 1009.60 1009.92 1010.27 1010.66 1011.10 1011.58 1012.08 1012.59 1013.08 1013.53 1013.92 1014.22 1014.42 1014.50 1014.46 1014.31 1014.06 1013.72 1013.34 1012.96 1012.60 1012.31 1012.11 1012.01 1012.01 1012.10 1012.24 1012.42 1012.60 1012.76 1012.90 1013.00 1013.06
1005.79 1006.14 1006.51 1006.92 1007.36 1007.82 1008.28 1008.72 1009.13 1009.52 1009.87 1010.21 1010.55 1010.90 1011.28 1011.70 1012.15 1012.61 1013.08 1013.51 1013.90 1014.20 1014.39 1014.46 1014.41 1014.24 1013.97 1013.63 1013.25 1012.88 1012.54 1012.26 1012.06 1011.96 1011.95 1012.01 1012.12 1012.26 1012.40 1012.54 1012.66 1012.74 1012.79
1005.69 1006.04 1006.42 1006.84 1007.32 1007.83 1008.36 1008.89 1009.39 1009.85 1010.25 1010.60 1010.92 1011.23 1011.54 1011.88 1012.25 1012.65 1013.06 1013.47 1013.83 1014.12 1014.31 1014.38 1014.32 1014.15 1013.89 1013.56 1013.21 1012.87 1012.56 1012.32 1012.14 1012.04 1012.01 1012.04 1012.10 1012.20 1012.30 1012.40 1012.48 1012.55 1012.59
1005.62 1005.98 1006.38 1006.82 1007.33 1007.90 1008.50 1009.11 1009.69 1010.21 1010.66 1011.02 1011.31 1011.57 1011.80 1012.06 1012.35 1012.68 1013.03 1013.39 1013.72 1013.99 1014.17 1014.24 1014.19 1014.04 1013.80 1013.52 1013.22 1012.94 1012.68 1012.48 1012.34 1012.24 1012.20 1012.18 1012.19 1012.22 1012.26 1012.31 1012.36 1012.40 1012.44
1005.61 1006.00 1006.41 1006.86 1007.39 1007.99 1008.64 1009.30 1009.94 1010.50 1010.98 1011.35 1011.63 1011.84 1012.02 1012.21 1012.42 1012.68 1012.98 1013.29 1013.58 1013.83 1013.99 1014.06 1014.03 1013.91 1013.73 1013.51 1013.28 1013.07 1012.89 1012.75 1012.64 1012.55 1012.48 1012.42 1012.37 1012.32 1012.29 1012.27 1012.27 1012.28 1012.31
1005.67 1006.08 1006.49 1006.94 1007.46 1008.06 1008.72 1009.40 1010.07 1010.67 1011.17 1011.55 1011.82 1012.01 1012.15 1012.29 1012.46 1012.66 1012.91 1013.17 1013.43 1013.66 1013.81 1013.88 1013.87 1013.80 1013.67 1013.52 1013.38 1013.26 1013.15 1013.07 1013.00 1012.92 1012.82 1012.71 1012.58 1012.45 1012.33 1012.24 1012.18 1012.16 1012.17
1005.80 1006.22 1006.61 1007.04 1007.52 1008.09 1008.72 1009.40 1010.06 1010.67 1011.18 1011.58 1011.85 1012.04 1012.18 1012.30 1012.44 1012.61 1012.82 1013.06 1013.29 1013.49 1013.64 1013.72 1013.74 1013.70 1013.64 1013.56 1013.50 1013.46 1013.43 1013.40 1013.36 1013.28 1013.16 1012.99 1012.79 1012.57 1012.36 1012.19 1012.06 1011.99 1011.97
1005.98 1006.40 1006.77 1007.15 1007.58 1008.09 1008.67 1009.30 1009.94 1010.54 1011.05 1011.46 1011.76 1011.96 1012.12 1012.25 1012.39 1012.55 1012.75 1012.97 1013.18 1013.36 1013.50 1013.59 1013.62 1013.63 1013.62 1013.61 1013.62 1013.64 1013.67 1013.68 1013.66 1013.57 1013.42 1013.20 1012.92 1012.63 1012.34 1012.08 1011.88 1011.75 1011.70
1006.21 1006.62 1006.97 1007.29 1007.65 1008.08 1008.60 1009.17 1009.76 1010.33 1010.84 1011.26 1011.59 1011.83 1012.01 1012.17 1012.32 1012.50 1012.69 1012.90 1013.10 1013.27 1013.40 1013.49 1013.54 1013.57 1013.59 1013.63 1013.68 1013.75 1013.82 1013.86 1013.84 1013.74 1013.56 1013.30 1012.96 1012.60 1012.23 1011.90 1011.64 1011.46 1011.35
1006.50 1006.90 1007.21 1007.48 1007.78 1008.14 1008.58 1009.08 1009.62 1010.15 1010.65 1011.07 1011.42 1011.68 1011.90 1012.09 1012.26 1012.45 1012.65 1012.85 1013.03 1013.19 1013.32 1013.40 1013.45 1013.50 1013.54 1013.59 1013.67 1013.76 1013.84 1013.88 1013.86 1013.75 1013.54 1013.24 1012.87 1012.46 1012.04 1011.66 1011.35 1011.11 1010.96
Thickness
5828 5821 5812 5808 5805 5801 5797 5793 5790 5787 5783 5780 5777 5774 5772 5769 5767 5765 5762 5760 5758 5756 5754 5752 5750 5749 5748 5747 5747 5746 5746 5745 5744 5744 5744 5744 5743 5742 5741 5740 5739 5739 5737
5829 5819 5811 5807 5803 5798 5795 5791 5787 5784 5780 5777 5774 5771 5769 5766 5764 5762 5759 5757 5755 5753 5751 5749 5748 5746 5745 5744 5744 5743 5742 5742 5742 5741 5742 5741 5741 5740 5739 5738 5737 5736 5734
5825 5816 5809 5804 5800 5795 5791 5788 5784 5781 5777 5774 5771 5768 5765 5762 5760 5758 5756 5754 5752 5750 5748 5747 5745 5744 5742 5742 5741 5740 5740 5739 5739 5739 5740 5740 5740 5739 5737 5735 5734 5732 5731
5822 5814 5808 5801 5797 5792 5788 5784 5781 5778 5774 5770 5767 5765 5762 5759 5757 5755 5753 5750 5748 5747 5745 5744 5742 5741 5740 5739 5738 5737 5737 5737 5737 5737 5739 5740 5740 5737 5735 5733 5731 5729 5728
5818 5811 5804 5798 5793 5789 5785 5781 5778 5774 5771 5767 5764 5762 5759 5756 5754 5752 5750 5747 5745 5744 5742 5741 5739 5738 5737 5736 5735 5735 5734 5734 5734 5735 5737 5739 5739 5735 5733 5731 5729 5727 5726
5815 5808 5800 5795 5790 5785 5781 5777 5774 5771 5767 5764 5761 5758 5755 5753 5750 5748 5746 5744 5743 5741 5739 5738 5736 5735 5734 5733 5732 5732 5731 5731 5732 5734 5737 5738 5736 5734 5731 5729 5727 5725 5723
5813 5806 5797 5791 5786 5782 5778 5774 5771 5767 5764 5761 5758 5755 5752 5749 5747 5745 5743 5741 5739 5738 5736 5735 5733 5732 5731 5730 5730 5730 5729 5729 5730 5732 5735 5735 5734 5731 5729 5727 5724 5723 5722
5812 5803 5792 5787 5783 5778 5774 5770 5767 5763 5760 5757 5755 5751 5749 5746 5744 5742 5740 5738 5736 5735 5733 5732 5730 5729 5728 5727 5727 5727 5727 5726 5729 5731 5733 5732 5731 5729 5727 5725 5722 5721 5719
5811 5800 5790 5784 5779 5774 5771 5767 5764 5760 5757 5754 5751 5749 5746 5744 5741 5739 5737 5735 5733 5731 5730 5728 5727 5726 5725 5725 5725 5725 5724 5724 5725 5727 5729 5729 5728 5726 5724 5722 5720 5719 5718
5806 5798 5789 5784 5778 5773 5768 5764 5761 5757 5754 5751 5749 5746 5744 5742 5740 5737 5735 5733 5731 5729 5727 5725 5724 5723 5722 5722 5722 5722 5722 5722 5723 5725 5726 5725 5724 5723 5721 5719 5718 5716 5715
5799 5795 5789 5784 5778 5774 5769 5763 5759 5755 5752 5749 5746 5744 5741 5740 5738 5736 5733 5731 5728 5726 5724 5723 5722 5721 5720 5720 5720 5720 5720 5720 5722 5723 5723 5722 5720 5718 5717 5715 5714 5714 5713
5791 5790 5788 5784 5778 5774 5771 5763 5758 5754 5751 5747 5745 5742 5739 5738 5737 5736 5733 5729 5726 5724 5722 5721 5719 5719 5718 5718 5718 5718 5717 5719 5719 5719 5718 5717 5715 5714 5712 5711 5711 5710 5710
5789 5786 5785 5782 5777 5773 5769 5762 5758 5754 5751 5747 5745 5742 5739 5737 5735 5734 5731 5727 5724 5722 5719 5718 5717 5716 5716 5716 5716 5715 5715 5715 5715 5715 5713 5712 5710 5709 5708 5707 5706 5706 5706
5785 5782 5781 5779 5774 5770 5767 5761 5757 5753 5750 5747 5743 5740 5737 5734 5732 5730 5727 5725 5722 5719 5717 5716 5715 5714 5713 5713 5712 5712 5712 5711 5710 5709 5708 5706 5705 5704 5703 5703 5702 5702 5702
5781 5778 5777 5775 5770 5766 5763 5759 5755 5751 5749 5745 5741 5737 5734 5731 5728 5725 5723 5720 5719 5717 5714 5712 5711 5710 5709 5708 5708 5709 5708 5707 5705 5704 5702 5701 5701 5700 5699 5698 5698 5698 5698
5777 5774 5773 5770 5766 5762 5758 5754 5752 5749 5745 5742 5738 5734 5731 5728 5725 5721 5719 5716 5714 5712 5709 5708 5706 5705 5704 5703 5703 5703 5703 5702 5700 5699 5697 5696 5695 5694 5694 5694 5693 5693 5693
5773 5771 5768 5765 5762 5758 5754 5751 5748 5745 5742 5738 5734 5731 5727 5724 5721 5717 5715 5712 5709 5707 5705 5703 5702 5701 5700 5699 5698 5698 5698 5697 5695 5694 5692 5691 5690 5689 5689 5688 5688 5687 5687
5769 5766 5764 5763 5757 5753 5749 5746 5743 5740 5737 5733 5730 5727 5723 5720 5717 5713 5710 5707 5704 5703 5701 5698 5697 5694 5693 5692 5691 5692 5692 5691 5690 5689 5688 5687 5686 5685 5684 5683 5683 5682 5682
5763 5760 5758 5756 5753 5749 5744 5740 5738 5734 5731 5728 5725 5722 5718 5715 5712 5709 5705 5701 5699 5698 5695 5692 5690 5688 5686 5685 5685 5686 5686 5686 5685 5685 5684 5682 5681 5680 5678 5678 5677 5677 5677
5758 5755 5752 5749 5746 5743 5739 5735 5731 5728 5726 5723 5720 5717 5714 5710 5707 5704 5700 5697 5695 5692 5688 5686 5683 5682 5681 5679 5679 5680 5680 5680 5680 5679 5678 5677 5675 5674 5673 5672 5671 5671 5671
5752 5748 5744 5741 5740 5736 5732 5728 5723 5720 5719 5717 5715 5712 5709 5706 5703 5699 5696 5692 5690 5687 5683 5681 5678 5676 5675 5674 5670 5669 5673 5675 5674 5673 5671 5670 5669 5668 5667 5666 5665 5664 5665
5745 5742 5738 5735 5733 5730 5726 5723 5719 5716 5713 5712 5710 5707 5705 5701 5698 5695 5690 5687 5685 5682 5679 5676 5673 5670 5669 5668 5663 5659 5658 5662 5664 5667 5665 5664 5663 5663 5661 5660 5659 5658 5658
5740 5737 5735 5731 5728 5725 5722 5718 5714 5709 5707 5704 5703 5701 5699 5696 5692 5689 5686 5683 5680 5678 5674 5671 5667 5663 5660 5660 5659 5653 5647 5647 5649 5655 5657 5657 5657 5655 5654 5654 5653 5653 5653
5735 5733 5730 5727 5723 5719 5716 5711 5706 5701 5698 5697 5697 5695 5693 5690 5688 5685 5682 5679 5676 5673 5669 5666 5663 5659 5655 5653 5653 5652 5648 5645 5640 5641 5646 5649 5649 5648 5648 5648 5647 5647 5646
5729 5727 5725 5722 5717 5714 5710 5706 5701 5698 5695 5693 5691 5689 5687 5685 5683 5681 5678 5675 5671 5667 5665 5662 5658 5654 5651 5648 5646 5645 5643 5642 5639 5633 5634 5638 5640 5641 5642 5641 5640 5641 5640
5726 5723 5719 5714 5710 5708 5704 5700 5695 5691 5688 5685 5682 5681 5680 5679 5678 5676 5673 5670 5666 5663 5661 5657 5654 5651 5648 5645 5643 5640 5637 5635 5633 5631 5629 5630 5630 5633 5635 5635 5635 5634 5634